Overview Statistics Trail Chart Weather Telemetry Raw packets
 

This is the latest recevied weather packets stored in our database for station/object KA1JKB. If no packets are shown the sender has not sent any weather packets the latest 10 day(s).

<< 20 21 22 23 24 25 26 >>
Time Temp. Humidity Pressure Rain* Wind** Luminosity Snow
1788305978 26.11° C 88% 1013 hPa 0 mm - 26 W/m² -
1788305673 26.11° C 87% 1013.1 hPa 0 mm - 35 W/m² -
1788305371 26.67° C 86% 1013.1 hPa 0 mm - 45 W/m² -
1788305070 26.67° C 85% 1013.3 hPa 0 mm - 55 W/m² -
1788304766 26.67° C 84% 1013.3 hPa 0 mm - 57 W/m² -
1788304462 26.67° C 84% 1013.4 hPa 0 mm - 58 W/m² -
1788304158 26.67° C 85% 1013.4 hPa 0 mm - 72 W/m² -
1788303857 26.67° C 85% 1013.6 hPa 0 mm - 70 W/m² -
1788303553 27.22° C 85% 1013.4 hPa 0 mm - 80 W/m² -
1788303252 27.22° C 85% 1013.3 hPa 0 mm - 100 W/m² -
1788302947 27.22° C 85% 1013.2 hPa 0 mm - 128 W/m² -
1788302643 27.22° C 85% 1013.1 hPa 0 mm - 114 W/m² -
1788302339 27.22° C 86% 1012.9 hPa 0 mm - 127 W/m² -
1788302034 27.22° C 85% 1012.9 hPa 0 mm - 96 W/m² -
1788301730 27.22° C 85% 1012.9 hPa 0 mm - 81 W/m² -
1788301427 27.22° C 84% 1013 hPa 0 mm - 66 W/m² -
1788301122 27.78° C 84% 1013 hPa 0 mm - 97 W/m² -
1788300818 27.22° C 84% 1013.2 hPa 0 mm - 173 W/m² -
1788300517 27.22° C 85% 1013.2 hPa 0 mm - 101 W/m² -
1788300216 27.22° C 84% 1012.9 hPa 0 mm - 117 W/m² -
1788299915 27.22° C 84% 1012.8 hPa 0 mm - 112 W/m² -
1788299615 27.78° C 84% 1012.6 hPa 0 mm - 91 W/m² -
1788299313 27.78° C 83% 1012.6 hPa 0 mm - 88 W/m² -
1788299013 28.33° C 81% 1012.5 hPa 0 mm - 80 W/m² -
1788298707 29.44° C 79% 1012.5 hPa 0 mm - 157 W/m² -

* Rain latest hour (hover to see other rain measurements)
** Current wind speed in m/s (hover to see current wind gust speed)